Погода в Нойкине

Россия / Оренбургская область     53°47′23″N   52°43′11″E
темп.,
°C
ветер,
м/с
пор.,
м/с
влажн.,
%
обл.,
%
осадки,
мм/ч
давл.,
гПа
погр.,
м
20 апреля, вт
вт2023:00+5в613485 0.0 1027463
02:00+2вюв511490 0.0 1030358
05:000в511520 0.0 1031322
08:00+1вюв610460 0.0 1032593
11:00+4вюв79300 0.0 10321058
14:00+8вюв79250 0.0 10311326
17:00+9вюв79250 0.0 10301384
20:00+7юв363792 0.0 1030144
21 апреля, ср
ср2123:00+4вюв234799 0.0 103147
02:00+3юв51250100 0.0 1030309
05:00+2юв51354100 0.0 1031385
08:00+2юв71450100 0.0 1030624
11:00+6юв91234100 0.0 1029871
14:00+10ююв91129100 0.0 10281175
17:00+9ююв71237100 0.0 10271174
20:00+8ю71339100 0.0 1027952
22 апреля, чт
чт2223:00+5ю61371100 0.4 1028957
02:00+4ююв71489100 2.3 10281026
05:00+5ю71271100 2.4 1028957
08:00+2ююв71397100 3.2 1028572
11:00+2ююв61196100 5.6 1029474
14:00+3ююв61197100 0.6 1029428
17:00+3ююв61195100 1.6 1029578
20:00+4ююв51193100 0.4 1030588
23 апреля, пт
пт2323:00+3ююв5998100 0.5 1029656
02:00+3ююв4897100 0.4 1028517
05:00+3юв2698100 0.5 1028407
08:00+4юв1599100 0.0 1028242
11:00+6вюв2291100 0.0 1028330
14:00+8в2379100 0.0 1027554
17:00+12в2461100 0.0 10251183
20:00+9св4775100 0.0 1024171
24 апреля, сб
сб2423:00+8св4981100 0.0 1023200
02:00+7юв41092100 0.0 1021403
05:00+6в3693100 0.8 1020303
08:00+6св2594100 0.8 1018387
11:00+6всв3591100 1.2 1016915
14:00+7св3589100 0.8 1015535
17:00+6св3490100 1.7 1014865
20:00+6с2491100 0.2 1014251